Voltar ao catálogo

KUIPER-00413

AtivoComunicaçõesLEO
NORAD 68928·PAYLOAD·🇺🇸 United States

Lançado Apr 30, 2026 de Guiana Space Centre

Loading…

Próximas Passagens (próximas 24 horas)

TLE

AtualizadoSource: CelesTrak SupGP

Época: Sep 15, 2026, 03:46 UTC

1 68928C 26098K   26258.15706019 -.00006934  00000+0 -90766-3 0  2582
2 68928  51.9003  22.8067 0000744 153.1440  57.9338 14.79941039    14

Acompanhe KUIPER-00413 em tempo real com AllMySat

Download on the App Store